CAPE
0 0 0 0 0 0 0 0 0 0 0 0 0 0 0 0 0 0 0 327 1474 1648 2440 1276 1052 1148 1101 1099 1153 1265 1425 1437 1352 1274 1030 1154 1249 1201 1275 1486 1648 1741 2011 1894 1866 2034 1982 1801 1477
0 0 0 0 0 0 0 0 0 0 0 0 0 0 0 0 0 0 0 0 520 1711 1960 1900 1329 1171 1155 1108 1184 1387 1472 1627 1579 1395 1219 1319 1408 1328 1379 1526 1631 1800 1962 2007 2214 2175 2145 2073 1798
0 0 0 0 0 0 0 0 0 0 0 0 0 0 0 0 0 0 0 127 918 1310 1876 2279 1574 1237 1156 1094 1226 1528 1678 1825 1694 1502 1446 1458 1392 1389 1406 1484 1734 1965 2123 2169 2242 2062 2101 1886 1625
0 0 0 0 0 0 0 0 0 0 0 0 0 0 0 0 0 0 0 148 1526 1613 1894 1952 1779 1354 1193 1098 1266 1581 1846 1839 1776 1731 1785 1668 1570 1559 1542 1445 1644 1958 2260 2114 2113 2205 2077 1693 1377
0 0 0 0 0 0 0 0 0 0 0 0 0 0 0 0 0 0 0 159 1688 2202 1913 2084 1708 1435 1275 1055 1134 1427 1712 1894 1887 1885 1935 1962 1865 1733 1619 1417 1589 1803 2329 2323 2035 2082 1653 1255 1279
0 0 0 0 0 0 0 0 0 0 0 0 0 0 0 0 0 0 0 196 1964 2592 2190 2533 1783 1467 1363 1071 996 1210 1426 1661 1947 2073 2088 2078 2052 1932 1643 1409 1544 1725 2151 2007 2051 2114 1605 1183 1197
0 0 0 0 0 0 0 0 0 0 0 0 0 0 0 0 0 0 0 20 1671 2565 2702 2494 2624 1753 1467 1269 1054 1044 1189 1346 1548 1851 2108 2194 2161 1998 1715 1581 1637 1891 1920 1858 1900 1911 1681 1221 1148
0 0 0 0 0 0 0 0 0 0 0 0 0 0 0 0 0 0 0 0 1033 2323 2553 2742 2622 2243 2096 1896 1269 1100 1037 1096 1245 1485 1801 2058 2188 2082 1869 1771 1809 1859 1900 1859 1923 1852 1532 1172 1111
0 0 0 0 0 0 0 0 0 0 0 0 0 0 0 0 0 0 0 0 415 2043 2329 2421 2632 2619 2499 2371 1990 1381 1230 1128 1151 1331 1555 1808 2277 2432 2345 2159 2107 1886 1873 1764 1675 1573 1562 1255 1105
0 0 0 0 0 0 0 0 0 0 0 0 0 0 0 0 0 0 0 0 0 1530 2097 2417 2185 2216 2281 2558 2609 2099 1894 1642 1594 1517 1738 1861 1864 2163 2158 2242 2111 2051 1877 1688 1570 1572 1492 1359 1408
0 0 0 0 0 0 0 0 0 0 0 0 0 0 0 0 0 0 0 0 0 13 1902 2123 2368 2423 2305 2273 2431 2529 2313 2219 2186 2090 2087 1996 2007 2101 2030 2106 2169 2304 1994 1955 1833 1823 1717 1456 1227
0 0 0 0 0 0 0 0 0 0 0 0 0 0 0 0 0 0 0 0 0 0 0 1541 2043 2357 2490 2558 2328 2374 2422 2532 2288 2252 2404 2329 2193 1987 1975 1584 2058 2136 2108 1891 1886 1823 1638 1476 1417
0 0 0 0 0 0 0 0 0 0 0 0 0 0 0 0 0 0 0 0 0 0 0 0 423 1513 2191 2364 2343 2301 2261 2232 2246 2325 2492 2180 2003 1975 1767 1642 1708 2042 1753 2020 1853 1783 1676 1448 1347
0 0 0 0 0 0 0 0 0 0 0 0 0 0 0 0 0 0 0 0 0 0 0 0 0 6 923 1650 2183 2111 2084 1967 2079 2012 2160 2280 2409 2339 1932 1796 1715 1504 1837 2164 1856 1887 1692 1680 1480
0 0 0 0 0 0 0 0 0 0 0 0 0 0 0 0 0 0 0 0 0 0 0 0 0 0 0 658 1355 1696 1892 1745 1582 1721 1893 1914 2071 2334 2137 2017 2027 1658 1709 1959 1960 2043 1798 1763 1520
0 0 0 0 0 0 0 0 0 0 0 0 0 0 0 0 0 0 0 0 0 0 0 0 0 0 0 0 50 953 1159 1759 1711 1507 1743 1948 2043 2214 2305 1987 1923 1934 1620 2054 1948 1933 1814 1681 1467
0 0 0 0 0 0 0 0 0 0 0 0 0 0 0 0 0 0 0 0 0 0 0 0 0 0 0 0 0 6 786 1371 1678 1761 1797 1940 1850 1931 2241 2045 1847 1870 1666 1936 1746 1806 1747 1678 1415
0 0 0 0 0 0 0 0 0 0 0 0 0 0 0 0 0 0 0 0 0 0 0 0 0 0 0 0 0 0 3 927 1394 1562 1964 2105 2131 2065 2288 2083 1847 1776 1481 1693 1412 1206 1275 1168 1247
0 0 0 0 0 0 0 0 0 0 0 0 0 0 0 0 0 0 0 0 0 0 0 0 0 0 0 0 0 0 0 24 768 1234 1526 2124 2212 2255 2236 2066 1902 1724 1352 1689 1366 1100 1033 971 925
0 0 0 0 0 0 0 0 0 0 0 0 0 0 0 0 0 0 0 0 0 0 0 0 0 0 0 0 0 0 0 0 149 915 1329 1800 2220 2279 1984 1969 1911 1704 1505 1627 1377 1039 856 806 696
0 0 0 0 0 0 0 0 0 0 0 0 0 0 2 3 0 0 0 0 0 0 0 0 0 0 0 0 0 0 0 0 2 992 1216 1534 2065 2163 1908 1883 1995 1670 1484 1370 1251 1069 765 635 558
0 0 0 0 1 0 0 0 0 0 0 0 0 0 12 5 0 0 0 0 0 0 0 0 0 0 0 0 0 1 0 0 0 283 1125 1468 1682 1890 2056 2003 1732 1537 1425 1280 1201 1099 865 783 472
1 0 0 2 0 0 0 0 0 0 0 0 4 27 32 0 0 0 0 0 0 0 0 0 0 0 0 0 0 0 2 1 0 66 1082 1454 1814 1989 2023 2017 1727 1453 1203 1191 1207 1006 862 854 601
0 1 0 3 5 1 0 0 0 0 0 3 27 54 9 0 0 0 0 0 0 0 0 1 0 0 0 0 0 2 3 2 0 186 939 1550 1893 1749 1932 1753 1581 1351 1272 1124 1146 533 1053 942 729
2 3 0 0 1 4 0 0 0 0 1 10 40 27 5 0 0 0 0 0 0 0 0 1 1 0 0 0 2 3 3 2 5 38 643 1591 1799 1675 1505 1594 1310 1339 1287 437 64 1 648 978 859
1 0 0 0 0 0 0 0 0 41 88 22 5 0 1 0 0 0 0 0 0 0 0 1 1 0 0 2 3 3 4 5 3 4 619 1283 1791 1662 1406 1421 1254 1256 1121 558 577 946 1127 1074 792
1 0 0 0 0 2 0 9 62 24 17 37 19 3 0 0 0 0 0 0 0 0 0 3 1 0 1 4 4 4 4 5 34 571 904 1435 1861 1684 1334 1400 1218 1235 1093 944 840 628 589 765 835
2 1 0 0 6 9 0 0 8 46 33 14 0 0 0 0 0 0 0 0 0 0 0 2 0 2 2 3 5 5 6 8 331 916 1140 1447 1640 1715 1487 1373 1036 662 408 540 412 295 408 659 847
3 5 2 1 2 8 9 3 17 7 0 1 0 0 0 0 0 0 0 0 0 0 0 1 1 2 3 4 4 6 7 7 6 871 994 1221 1369 1339 1146 1185 782 652 417 98 85 100 124 459 556
0 0 0 1 2 0 0 0 0 4 0 0 0 0 0 0 0 0 0 0 0 0 0 1 1 2 1 3 5 3 6 6 9 2 148 964 1196 1091 912 799 692 600 388 345 79 35 77 235 383
CIN
0 0 0 0 0 0 0 0 0 0 0 0 0 0 0 0 0 0 0 -203 -144 -145 -152 -348 -404 -383 -362 -342 -316 -286 -249 -227 -224 -208 -206 -181 -161 -152 -138 -98 -68 -43 -9 -14 -13 -3 -2 -11 -31
0 0 0 0 0 0 0 0 0 0 0 0 0 0 0 0 0 0 0 0 -197 -120 -113 -222 -347 -360 -369 -349 -317 -277 -235 -205 -200 -187 -186 -156 -134 -134 -118 -93 -65 -32 -11 -8 -2 -1 0 -2 -15
0 0 0 0 0 0 0 0 0 0 0 0 0 0 0 0 0 0 0 -208 -140 -124 -117 -133 -272 -334 -344 -348 -305 -254 -212 -185 -194 -193 -176 -147 -137 -129 -114 -93 -55 -21 -5 -3 -1 -2 0 -11 -25
0 0 0 0 0 0 0 0 0 0 0 0 0 0 0 0 0 0 0 -231 -126 -111 -111 -172 -218 -311 -313 -312 -285 -224 -186 -182 -176 -154 -130 -119 -120 -107 -101 -93 -64 -27 -4 -8 -9 -2 -7 -20 -38
0 0 0 0 0 0 0 0 0 0 0 0 0 0 0 0 0 0 0 -243 -129 -92 -102 -188 -250 -286 -313 -304 -266 -234 -200 -169 -156 -135 -115 -95 -94 -97 -96 -94 -77 -47 -6 -6 -12 -12 -29 -54 -47
0 0 0 0 0 0 0 0 0 0 0 0 0 0 0 0 0 0 0 -220 -120 -75 -98 -103 -256 -290 -284 -290 -277 -242 -225 -193 -148 -111 -91 -82 -78 -84 -88 -87 -78 -54 -23 -15 -9 -6 -37 -65 -60
0 0 0 0 0 0 0 0 0 0 0 0 0 0 0 0 0 0 0 -238 -97 -67 -58 -57 -79 -203 -253 -272 -267 -243 -219 -207 -172 -130 -83 -71 -71 -77 -79 -81 -70 -44 -33 -23 -18 -13 -26 -60 -64
0 0 0 0 0 0 0 0 0 0 0 0 0 0 0 0 0 0 0 0 -64 -45 -61 -46 -61 -105 -116 -146 -247 -256 -245 -219 -194 -159 -106 -72 -60 -62 -63 -58 -52 -44 -31 -22 -16 -15 -31 -60 -56
0 0 0 0 0 0 0 0 0 0 0 0 0 0 0 0 0 0 0 0 -83 -24 -43 -57 -44 -55 -56 -53 -109 -203 -216 -218 -214 -163 -124 -76 -19 -16 -19 -24 -21 -43 -29 -29 -22 -22 -26 -40 -44
0 0 0 0 0 0 0 0 0 0 0 0 0 0 0 0 0 0 0 0 0 -2 -10 -29 -68 -71 -53 -17 -15 -59 -82 -114 -120 -114 -79 -45 -14 -1 -1 -2 -12 -18 -25 -33 -33 -21 -23 -31 -1
0 0 0 0 0 0 0 0 0 0 0 0 0 0 0 0 0 0 0 0 0 -6 -3 -1 -8 -14 -22 -42 -31 -30 -22 -34 -38 -49 -33 -37 -8 0 -1 -1 -5 -1 -4 -2 -11 -6 -2 -1 -1
0 0 0 0 0 0 0 0 0 0 0 0 0 0 0 0 0 0 0 0 0 0 0 -3 -1 -1 -1 -2 -12 -17 -6 -22 -16 -25 -14 -9 -6 -6 -1 -17 -7 -5 -1 -1 -1 -1 -2 -2 -1
0 0 0 0 0 0 0 0 0 0 0 0 0 0 0 0 0 0 0 0 0 0 0 0 -16 -2 -1 -1 -2 -2 -5 -16 -42 -21 -11 -8 -13 -11 -6 -5 -2 -6 -14 -1 -1 -5 -9 -4 -3
0 0 0 0 0 0 0 0 0 0 0 0 0 0 0 0 0 0 0 0 0 0 0 0 0 -28 -13 -1 -1 -1 -2 -9 -18 -14 -57 -41 -26 -18 -5 -5 -4 -4 -5 -3 -2 -2 -5 -3 -2
0 0 0 0 0 0 0 0 0 0 0 0 0 0 0 0 0 0 0 0 0 0 0 0 0 0 0 -44 -4 -3 -4 -16 -13 -16 -32 -90 -63 -40 -17 -24 -11 -13 -3 -8 -10 -2 -2 -1 -1
0 0 0 0 0 0 0 0 0 0 0 0 0 0 0 0 0 0 0 0 0 0 0 0 0 0 0 0 -191 -28 -19 -6 -14 -22 -29 -59 -64 -42 -26 -12 -50 -36 -12 -4 -10 -1 -1 -1 -1
0 0 0 0 0 0 0 0 0 0 0 0 0 0 0 0 0 0 0 0 0 0 0 0 0 0 0 0 0 -80 -63 -11 -7 -13 -3 -42 -71 -55 -45 -30 -80 -37 -28 -11 -25 -4 -2 0 -1
0 0 0 0 0 0 0 0 0 0 0 0 0 0 0 0 0 -1 0 0 0 0 0 0 0 0 0 0 0 0 -56 -44 -11 -5 -2 -7 -46 -61 -36 -47 -82 -71 -58 -32 -52 -58 -37 -39 -4
0 0 0 0 0 0 0 0 0 0 0 0 0 0 0 0 0 0 0 0 0 0 0 0 0 0 0 0 0 0 0 -184 -29 -6 -5 -1 -7 -26 -26 -46 -52 -86 -106 -45 -57 -67 -61 -64 -34
0 -4 0 0 0 0 0 0 0 0 0 0 0 0 0 0 0 0 0 0 0 0 0 0 0 0 0 0 0 0 0 0 -63 -1 -1 -1 -1 -3 -29 -38 -52 -88 -104 -49 -45 -98 -95 -64 -56
-1 0 -10 0 0 0 0 0 0 0 0 0 0 -1 -3 -2 0 0 0 0 0 0 0 0 0 0 0 0 0 0 0 0 -117 -10 -2 -1 -1 -2 -31 -64 -27 -130 -132 -96 -80 -83 -118 -113 -83
0 0 0 -8 -13 0 0 0 0 0 0 0 0 0 -3 -3 0 0 0 0 0 0 0 0 0 0 0 -1 -1 -1 -1 0 0 -26 -4 -3 -2 -2 -4 -34 -18 -120 -138 -98 -96 -80 -73 -58 -120
-1 0 0 -7 0 0 0 -1 0 0 0 0 -3 -2 -2 -1 0 0 0 0 0 0 0 0 0 0 0 -1 -1 -1 0 -1 -1 -105 -1 -4 -5 -5 -1 -14 -42 -128 -111 -98 -54 -13 -23 -33 -64
0 0 0 -9 -15 -13 0 -4 -8 0 0 -7 -4 -2 -2 0 0 0 0 0 0 0 0 -1 -1 0 -1 0 -1 0 0 0 0 -73 -14 -2 -5 -33 -8 -4 -21 -99 -113 -115 -97 -131 -1 -23 -66
-1 -1 0 0 -2 -3 0 0 0 0 -4 -9 -6 -2 -1 0 0 0 0 0 0 0 0 -1 -1 -1 -1 0 0 0 0 0 -1 -134 -44 -2 -5 -22 -47 -10 -32 -69 -106 -303 -334 -23 -3 -2 -28
-1 0 -1 -1 0 0 0 0 0 -6 -17 -21 -70 0 -1 0 0 0 0 0 0 0 -1 -1 -1 0 -1 0 0 0 0 0 0 -1 -63 -3 -2 -16 -40 -16 -26 -44 -60 -174 -137 -107 -1 0 -7
-4 0 0 0 0 -5 0 -5 -6 -19 -67 -89 -77 -1 0 0 0 0 0 0 0 0 -1 -1 -1 0 0 0 0 0 0 0 -14 -48 -14 -3 -1 -4 -48 -9 -11 -6 -16 -39 -47 -45 -5 0 0
-3 -7 0 -12 -4 -4 -4 -15 -4 -14 -26 -50 0 0 0 0 0 0 0 0 0 0 -1 -1 -1 0 0 0 0 0 0 0 -63 -5 -1 -2 -7 -1 -10 -2 -17 -47 -68 -77 -67 -18 -3 -1 -1
-6 -3 -10 -10 -2 -3 -6 -8 -11 -1 -1 -2 0 0 0 0 0 0 0 0 -1 0 -1 -1 -1 0 0 0 0 0 0 0 0 -22 -7 -2 -3 -3 -7 -9 -34 -40 -95 -206 -198 -129 -6 -2 -1
0 -1 0 -6 -4 0 0 -1 -1 -4 -8 0 0 0 0 0 0 0 0 0 0 -1 -1 -1 0 0 0 0 0 0 0 0 0 0 -155 -2 -3 -12 -8 -43 -29 -30 -58 -71 -195 -146 -113 -1 -1
Wind_Speed
13 10 13 15 15 12 21 22 17 14 13 14 18 16 20 24 21 18 23 22 23 16 6 2 5 5 5 4 4 5 6 7 7 8 8 9 9 9 9 9 9 9 10 11 11 11 11 11 10
14 15 14 17 19 20 17 17 14 17 14 17 18 18 15 16 18 23 22 28 24 17 8 2 5 5 5 4 4 3 4 5 5 6 6 7 7 7 7 7 7 8 8 9 9 9 9 9 9
16 15 19 18 18 22 23 19 20 16 15 16 18 16 19 16 17 22 26 27 24 17 10 4 5 5 4 4 2 1 2 4 4 5 5 5 5 5 5 5 6 6 6 6 7 8 8 8 8
13 14 19 19 22 24 23 24 18 16 15 18 20 20 16 15 20 23 26 26 22 18 10 4 5 6 6 4 2 1 0 2 3 3 3 4 4 4 3 4 4 4 4 5 6 6 6 6 6
13 17 22 24 25 29 29 22 20 21 23 22 22 22 18 13 15 24 26 25 21 16 9 5 4 7 7 6 4 3 1 0 1 2 2 2 3 3 2 2 3 3 3 4 4 5 5 5 5
16 19 25 29 27 25 24 23 27 23 23 25 25 22 22 16 20 26 26 25 21 17 11 6 6 7 8 7 6 5 3 2 1 0 1 1 1 1 1 1 1 2 2 3 4 4 4 4 4
18 25 28 35 34 33 32 24 28 26 25 26 23 21 21 17 20 27 27 24 20 17 12 10 8 7 8 8 7 7 6 4 2 2 1 1 1 1 1 1 1 1 1 3 5 5 4 3 2
18 25 34 31 33 35 31 23 24 27 28 20 20 22 22 17 26 29 27 24 21 16 15 11 10 8 9 9 10 8 7 6 6 5 3 3 3 3 3 3 2 3 3 3 4 4 3 3 1
17 26 30 28 31 31 28 26 30 24 29 24 21 24 26 30 31 28 25 23 20 18 15 14 11 9 10 10 10 11 10 9 8 7 5 5 5 5 5 5 4 4 4 3 5 5 4 4 3
17 22 25 28 32 34 28 26 27 29 25 27 27 24 26 23 26 24 24 22 23 19 15 12 12 12 12 12 11 11 11 11 11 9 8 8 8 7 6 6 6 6 5 5 5 6 5 5 5
23 25 31 31 30 28 34 33 32 31 31 28 30 30 26 26 25 25 24 22 22 21 15 14 12 13 13 13 14 14 12 12 11 10 10 9 10 10 9 10 9 9 8 6 5 7 6 5 6
30 31 32 34 34 30 30 33 33 32 33 34 33 29 28 26 24 24 24 22 21 21 19 14 14 13 14 15 16 16 16 15 14 12 12 13 12 12 11 10 9 9 9 8 6 6 6 6 7
30 31 33 34 30 33 33 35 35 34 33 32 29 27 25 24 24 23 22 22 21 20 19 20 17 16 17 17 18 19 18 17 17 17 17 15 14 14 13 13 13 10 11 8 9 8 7 7 7
35 35 34 33 33 32 35 38 35 32 27 28 26 25 23 22 22 22 21 20 22 21 21 21 22 24 19 20 20 21 20 20 19 18 17 18 18 18 18 15 13 16 11 11 10 10 9 9 9
39 44 41 34 33 33 30 40 37 33 26 27 24 23 21 21 20 21 20 22 22 23 23 24 24 23 26 24 21 22 23 21 21 20 18 18 20 19 17 18 19 16 14 14 12 12 12 11 12
44 42 47 36 33 31 27 43 31 23 23 21 20 17 18 20 20 19 20 22 23 24 24 26 26 27 27 29 31 26 25 24 23 23 21 21 21 22 21 20 18 16 19 15 14 13 14 14 14
42 52 45 41 29 28 27 36 27 18 21 20 20 21 20 18 18 17 21 21 22 24 25 25 28 29 30 31 32 35 31 29 27 25 24 22 22 23 23 23 21 19 18 18 18 16 15 17 16
49 48 46 44 31 28 30 32 33 25 20 21 22 22 20 20 18 19 20 21 23 25 27 29 29 30 31 33 34 34 36 31 31 29 28 25 25 25 24 22 20 19 20 20 18 18 17 18 17
49 50 50 44 32 32 35 35 31 24 28 27 23 21 21 19 17 18 20 21 23 26 28 30 32 33 34 34 34 33 33 32 32 32 34 31 29 28 27 25 23 22 20 20 19 19 21 22 17
47 49 49 44 40 33 38 41 37 34 30 26 23 18 17 16 16 18 21 23 25 28 29 31 33 35 36 36 37 38 38 38 36 32 34 36 35 32 31 28 28 22 21 20 20 19 22 23 17
46 48 41 46 46 43 42 47 39 33 27 24 20 14 12 15 18 20 23 26 28 30 31 33 34 36 37 37 38 39 37 38 40 36 33 35 35 35 38 31 31 25 23 21 21 20 22 23 20
45 45 43 48 46 44 32 46 38 28 23 19 13 12 12 15 19 21 25 28 30 31 32 34 36 38 38 38 37 38 39 40 34 34 32 34 37 35 35 32 33 28 26 23 22 21 23 21 21
43 37 42 38 41 44 40 34 32 16 20 15 12 11 13 16 19 23 26 28 30 32 34 37 38 39 39 40 37 35 34 34 35 37 34 32 32 33 31 33 34 32 27 25 22 25 24 22 22
33 32 31 34 33 40 38 36 34 21 19 14 9 9 13 17 20 23 26 29 31 33 36 38 40 42 41 40 38 34 35 35 34 34 37 31 32 29 29 32 36 33 29 25 23 28 39 26 23
23 23 25 27 30 39 28 32 32 14 12 11 8 10 15 18 21 25 28 31 33 36 38 39 42 43 43 40 38 37 37 33 26 32 43 36 31 29 29 28 32 34 32 27 25 23 45 26 22
20 20 30 29 28 30 30 28 15 11 5 5 9 13 17 20 23 26 30 32 35 37 39 41 43 44 43 40 41 39 38 31 27 30 43 41 31 29 27 25 28 33 36 35 28 23 23 26 24
22 25 15 32 35 29 19 13 11 12 13 11 14 16 19 22 25 28 30 33 35 38 39 41 43 44 42 42 41 40 37 36 28 46 34 35 30 28 24 26 25 29 27 26 27 30 32 29 24
16 16 22 23 28 29 23 20 22 9 9 9 12 17 21 24 28 30 32 34 36 38 39 40 41 43 42 40 39 37 35 34 34 33 28 29 31 27 22 20 23 26 27 23 24 26 33 28 24
19 12 19 18 29 30 34 21 13 3 5 10 14 19 24 27 30 32 33 35 37 38 38 40 42 42 42 40 38 35 34 33 30 30 34 36 37 36 22 16 20 25 25 23 24 20 32 33 30
18 25 21 24 26 23 30 24 10 11 12 18 22 24 26 28 31 33 34 35 36 37 38 39 41 41 41 39 36 34 34 33 31 29 32 32 38 34 21 16 19 20 26 25 27 36 38 41 33
Wind_Direction
340 352 339 333 326 327 308 307 312 321 324 323 316 321 315 297 302 312 327 331 322 316 339 190 173 158 149 133 112 101 95 99 100 97 95 97 92 86 79 70 68 68 75 82 91 94 97 101 94
331 329 329 320 310 305 310 317 315 312 327 318 317 314 319 318 308 303 317 310 312 319 323 237 188 173 164 151 131 108 92 92 96 95 92 95 88 83 74 76 70 73 72 79 81 83 92 93 89
327 321 314 313 300 298 300 327 316 320 321 320 320 320 313 319 315 310 313 311 309 314 313 288 206 219 200 177 165 107 92 96 99 103 99 100 99 90 76 77 76 69 61 64 73 74 84 81 87
340 328 312 303 298 298 303 307 316 316 314 310 310 314 320 319 311 314 314 315 313 312 311 290 227 242 239 220 219 252 6 76 94 93 91 99 104 93 78 86 85 75 50 59 62 59 63 70 80
325 316 301 297 298 295 293 302 306 303 302 303 305 305 312 323 329 318 315 315 315 316 314 304 256 235 238 230 228 226 256 288 103 110 111 112 112 108 92 100 98 88 50 23 29 36 42 55 72
312 314 297 295 298 300 300 299 298 299 300 299 298 301 302 317 314 316 316 317 313 309 307 309 285 241 238 233 229 236 237 257 280 53 127 126 124 125 133 133 120 117 23 351 351 5 14 35 55
301 296 296 293 295 293 292 299 297 298 299 299 301 300 307 315 314 314 309 316 318 310 301 292 297 251 246 249 245 248 257 261 276 292 285 285 264 254 241 204 201 214 336 325 328 337 347 3 43
301 298 293 293 295 293 296 300 295 297 294 312 304 304 302 305 316 312 308 308 313 310 299 289 286 256 248 254 255 248 248 255 273 284 285 291 284 277 271 256 248 272 298 309 312 320 334 331 327
310 294 291 296 294 297 302 299 294 298 297 298 300 299 301 301 305 308 309 308 313 308 299 288 284 274 256 254 257 259 260 263 272 276 281 290 297 288 277 268 264 260 273 291 303 307 311 313 307
285 290 291 298 298 296 298 298 297 297 296 296 296 298 303 308 308 308 307 306 309 309 300 285 279 274 267 267 265 255 258 265 270 273 278 279 287 290 281 278 279 273 271 281 294 302 294 302 308
294 280 296 295 300 298 294 293 293 292 291 294 295 297 302 305 306 303 305 304 306 310 307 293 278 273 266 264 266 272 257 262 263 260 265 270 281 287 289 292 288 286 281 286 282 297 295 287 293
287 290 295 295 294 295 294 295 291 290 291 291 294 297 299 301 303 303 301 302 306 305 308 304 289 278 269 269 267 266 264 264 269 263 260 270 273 278 283 281 291 287 283 274 275 284 284 278 283
290 293 292 296 294 291 293 289 290 288 292 293 295 296 298 299 301 302 301 303 305 306 306 301 299 287 280 274 272 270 266 265 264 270 269 266 267 273 276 283 285 287 288 280 281 283 285 283 287
296 299 295 293 290 291 289 288 288 289 295 291 292 294 297 298 299 303 303 304 306 306 305 303 298 292 284 280 276 275 271 270 267 264 261 259 263 267 277 277 278 286 285 284 283 284 296 291 291
293 289 292 285 288 287 294 285 283 287 286 289 290 292 294 297 300 302 306 306 308 306 304 301 299 298 288 284 278 276 275 272 269 264 262 259 255 257 266 271 279 281 285 283 283 291 287 294 296
290 290 285 289 283 280 281 284 293 291 280 287 290 291 294 296 300 307 309 308 308 309 308 303 300 296 293 287 282 279 276 273 270 267 262 257 253 256 261 267 268 273 280 284 280 278 285 289 294
281 282 285 289 282 282 269 285 283 288 289 287 287 291 293 297 303 306 312 312 312 313 312 311 304 298 294 290 287 281 277 274 270 267 264 258 254 253 255 262 266 268 271 278 277 278 281 286 292
281 278 281 281 278 275 271 274 281 286 280 289 287 287 289 295 295 309 314 319 318 317 313 307 306 303 300 294 289 286 280 274 270 267 264 259 258 254 252 255 255 259 265 272 271 273 276 281 288
277 278 278 283 280 271 275 277 277 274 280 282 283 283 285 286 301 309 318 326 322 320 317 314 307 303 299 298 295 290 285 278 272 266 267 262 261 255 253 253 253 252 257 265 264 268 270 275 283
278 274 270 276 278 274 274 276 276 275 275 277 279 278 280 287 299 314 320 323 323 320 319 316 312 307 303 298 294 290 286 282 281 270 267 264 262 258 253 252 253 250 256 260 261 260 269 273 272
275 275 273 270 273 276 276 272 273 271 272 274 276 272 279 291 300 311 318 319 320 320 320 318 315 311 307 303 299 294 289 283 276 276 268 266 259 254 254 255 252 249 253 255 255 256 259 265 269
275 272 273 270 266 268 274 273 276 260 264 263 256 266 280 297 306 316 319 320 320 321 321 320 318 315 313 309 303 298 291 285 279 270 269 267 264 259 253 247 247 250 252 253 254 253 256 260 262
274 278 273 269 268 267 266 274 273 258 255 251 250 265 289 303 312 317 322 323 322 322 320 320 318 317 316 313 308 303 294 288 284 273 269 264 261 260 256 247 245 247 249 252 254 258 255 257 262
280 286 273 270 269 264 263 267 271 255 255 246 247 280 300 310 317 322 323 324 323 322 321 320 319 318 319 317 313 306 297 288 282 276 267 261 260 259 255 253 247 245 242 244 243 271 262 254 257
269 279 275 275 267 264 267 267 261 273 270 232 243 289 307 317 320 321 323 324 324 323 322 323 321 321 321 321 318 306 298 292 278 273 262 260 260 259 258 251 244 241 243 243 251 273 250 246 255
262 260 267 273 276 275 271 265 274 285 298 303 315 312 315 319 319 321 322 323 324 324 323 321 323 323 326 325 317 307 301 295 285 270 257 258 259 261 262 252 246 246 250 257 259 255 246 253 253
289 258 260 276 276 281 274 277 286 273 278 287 305 312 316 317 317 319 321 323 324 324 323 322 322 328 330 321 316 308 306 297 285 254 257 255 258 261 262 254 250 248 245 248 253 254 254 255 249
280 284 269 273 277 271 269 271 279 279 287 306 312 315 315 315 316 317 319 321 322 323 324 325 326 330 330 321 318 314 305 297 283 265 256 255 258 259 260 250 245 242 247 248 252 257 257 251 250
276 288 281 286 276 272 267 285 324 324 336 325 324 317 314 314 315 314 317 319 322 324 324 327 328 330 326 320 319 313 306 300 291 275 257 253 252 254 256 246 244 247 237 241 254 272 253 249 248
290 274 284 280 274 283 282 291 318 311 322 319 315 316 316 315 314 313 316 319 322 323 324 328 332 331 327 324 320 316 308 301 292 283 272 264 252 257 254 253 252 245 242 246 258 249 252 246 254